This demonstration page uses our WeatherBlox Daily Observations layout. Learn more.

Left ArrowRight Arrow

41.12389, -100.76542

Hourly Observations for January 16, 2019

Temp ( °F °C ) Dew Point ( °F °C ) Humidity (%) Winds ( mph kmh ) Pressure ( in mb ) Visibility ( mi km ) Precip ( " mm )
12:53 am 00:53 Clear 22 -5.6 19 -7.2 89 89 E 6 9 30.17 1022 10 16 0.00 0.00
1:29 am 01:29 Partly Cloudy 22 -5.6 19 -7.2 89 89 ENE 5 7 30.30 1026 10 16 0.00 0.00
1:37 am 01:37 Mostly Cloudy 24 -4.4 21 -6.1 88 88 E 5 7 30.30 1026 9 14 0.00 0.00
1:44 am 01:44 Mostly Cloudy 25 -3.9 23 -5 92 92 ESE 5 7 30.30 1026 7 11 0.00 0.00
1:53 am 01:53 Cloudy with Mist and Fog 25 -3.9 24 -4.4 96 96 ENE 8 13 30.16 1021 4 6 0.00 0.00
1:58 am 01:58 Cloudy with Mist and Fog 25 -3.9 24 -4.4 96 96 ENE 9 15 30.30 1026 2 3 0.00 0.00
2:07 am 02:07 Cloudy with Mist and Fog 26 -3.3 24 -4.4 92 92 E 10 17 30.27 1025 1 2 0.00 0.00
2:53 am 02:53 Cloudy with Mist and Fog 26 -3.3 25 -3.9 96 96 E 8 13 30.16 1021 1 2 0.00 0.00
3:53 am 03:53 Mostly Cloudy with Mist and Fog 26 -3.3 25 -3.9 96 96 E 6 9 30.15 1021 1 1 0.00 0.00
4:00 am 04:00 Mostly Cloudy with Mist and Fog 26 -3.3 25 -3.9 96 96 E 7 11 30.27 1025 1 2 0.00 0.00
4:35 am 04:35 Mostly Cloudy with Mist and Fog 26 -3.3 25 -3.9 96 96 E 7 11 30.27 1025 1 1 0.00 0.00
4:53 am 04:53 Mostly Cloudy with Mist and Fog 26 -3.3 25 -3.9 96 96 ESE 10 17 30.14 1021 1 1 0.00 0.00
5:53 am 05:53 Mostly Cloudy with Mist and Fog 26 -3.3 25 -3.9 96 96 ESE 8 13 30.16 1021 1 1 0.00 0.00
6:53 am 06:53 Mostly Cloudy with Mist and Fog 26 -3.3 24 -4.4 92 92 ESE 8 13 30.15 1021 1 1 0.00 0.00
7:19 am 07:19 Mostly Cloudy with Mist and Fog 26 -3.3 25 -3.9 96 96 ESE 9 15 30.24 1024 1 2 0.00 0.00
7:27 am 07:27 Mostly Cloudy with Mist and Fog 26 -3.3 25 -3.9 96 96 ESE 8 13 30.24 1024 1 1 0.00 0.00
7:49 am 07:49 Cloudy with Mist and Fog 27 -3 25 -4 93 93 SE 10 17 30.24 1024 1 2 0.00 0.00
7:53 am 07:53 Cloudy with Mist and Fog 26 -3.3 24 -4.4 92 92 ESE 9 15 30.16 1021 1 2 0.00 0.00
8:31 am 08:31 Cloudy with Freezing Fog 26 -3.3 24 -4.4 92 92 ESE 13 20 30.24 1024 1 1 0.00 0.00
8:53 am 08:53 Cloudy with Mist and Fog 26 -3.3 24 -4.4 92 92 SE 13 20 30.16 1021 1 1 0.00 0.00
9:10 am 09:10 Cloudy with Mist and Fog 26 -3.3 24 -4.4 92 92 SE 13 20 30.24 1024 2 2 0.00 0.00
9:16 am 09:16 Cloudy with Mist and Fog 25 -3.9 23 -5 92 92 SE 10 17 30.21 1023 3 5 0.00 0.00
9:26 am 09:26 Cloudy with Mist and Fog 25 -3.9 23 -5 92 92 SE 13 20 30.24 1024 2 3 0.00 0.00
9:31 am 09:31 Cloudy with Mist and Fog 25 -3.9 24 -4.4 96 96 SE 12 19 30.24 1024 1 1 0.00 0.00
9:53 am 09:53 Cloudy with Mist and Fog 26 -3.3 24 -4.4 92 92 SE 9 15 30.16 1022 1 1 0.00 0.00
9:59 am 09:59 Cloudy with Mist and Fog 26 -3.3 24 -4.4 92 92 SE 9 15 30.24 1024 2 2 0.00 0.00
10:11 am 10:11 Cloudy with Mist and Fog 26 -3.3 24 -4.4 92 92 SSE 8 13 30.24 1024 1 1 0.00 0.00
10:45 am 10:45 Cloudy with Mist and Fog 27 -2.8 25 -3.9 92 92 S 7 11 30.24 1024 2 2 0.00 0.00
10:48 am 10:48 Cloudy with Mist and Fog 27 -3 25 -4 93 93 SSE 8 13 30.24 1024 3 5 0.00 0.00
10:53 am 10:53 Cloudy with Mist and Fog 27 -2.8 25 -3.9 92 92 SSE 8 13 30.17 1022 3 5 0.00 0.00
11:00 am 11:00 Cloudy with Mist and Fog 27 -2.8 25 -3.9 92 92 SSE 9 15 30.24 1024 2 3 0.00 0.00
11:16 am 11:16 Cloudy with Mist and Fog 27 -2.8 25 -3.9 92 92 SSE 10 17 30.24 1024 1 2 0.00 0.00
11:30 am 11:30 Cloudy with Mist and Fog 28 -2.2 25 -3.9 88 88 SE 9 15 30.21 1023 2 3 0.00 0.00
11:38 am 11:38 Cloudy with Mist and Fog 28 -2.2 25 -3.9 88 88 SE 9 15 30.24 1024 1 2 0.00 0.00
11:53 am 11:53 Cloudy with Mist and Fog 28 -2.2 26 -3.3 92 92 S 5 7 30.17 1022 2 3 0.00 0.00
12:02 pm 12:02 Cloudy with Mist and Fog 28 -2.2 25 -3.9 88 88 S 5 7 30.21 1023 4 6 0.00 0.00
12:46 pm 12:46 Cloudy with Mist and Fog 28 -2.2 26 -3.3 92 92 SSW 8 13 30.18 1022 6 10 0.00 0.00
12:53 pm 12:53 Cloudy with Mist and Fog 28 -2.2 26 -3.3 92 92 S 5 7 30.13 1020 6 10 0.00 0.00
1:53 pm 13:53 Cloudy with Mist and Fog 29 -1.7 26 -3.3 89 89 S 6 9 30.08 1019 6 10 0.00 0.00
2:53 pm 14:53 Cloudy with Light Wintry Mix 28 -2.2 26 -3.3 92 92 SSE 6 9 30.08 1019 5 8 0.00 0.03
3:13 pm 15:13 Cloudy with Light Freezing Rain 29 -1.7 27 -2.8 92 92 ESE 5 7 30.12 1020 3 5 0.00 0.03
3:51 pm 15:51 Cloudy with Light Wintry Mix 28 -2 27 -3 93 93 ESE 6 9 30.12 1020 5 8 0.01 0.25
3:53 pm 15:53 Cloudy with Light Wintry Mix 29 -1.7 27 -2.8 92 92 ESE 6 9 30.07 1018 5 8 0.01 0.25
4:53 pm 16:53 Cloudy 29 -1.7 27 -2.8 92 92 Calm 30.08 1019 7 11 0.00 0.03
5:53 pm 17:53 Cloudy 29 -1.7 27 -2.8 92 92 Calm 30.09 1019 8 13 0.00 0.00
6:53 pm 18:53 Cloudy with Mist and Fog 29 -1.7 27 -2.8 92 92 SW 7 11 30.09 1019 6 10 0.00 0.00
7:53 pm 19:53 Cloudy with Mist and Fog 29 -1.7 27 -2.8 92 92 SW 6 9 30.09 1019 6 10 0.00 0.00
8:53 pm 20:53 Cloudy with Mist and Fog 29 -1.7 27 -2.8 92 92 SSW 6 9 30.09 1019 5 8 0.00 0.00
9:06 pm 21:06 Cloudy with Mist and Fog 29 -1.7 27 -2.8 92 92 WSW 5 7 30.12 1020 5 8 0.00 0.00
9:53 pm 21:53 Cloudy with Mist and Fog 29 -1.7 27 -2.8 92 92 SW 6 9 30.09 1019 4 6 0.00 0.00
10:53 pm 22:53 Cloudy with Mist and Fog 29 -1.7 27 -2.8 92 92 WSW 5 7 30.10 1019 5 8 0.00 0.00
11:10 pm 23:10 Cloudy with Mist and Fog 29 -1.7 27 -2.8 92 92 WSW 7 11 30.15 1021 5 8 0.00 0.00
11:51 pm 23:51 Cloudy with Mist and Fog 28 -2 27 -3 93 93 W 7 11 30.15 1021 5 8 0.00 0.00
11:53 pm 23:53 Cloudy with Mist and Fog 29 -1.7 27 -2.8 92 92 W 7 11 30.11 1020 5 8 0.00 0.00

Powered by AerisWeather